Location: Anna District 4 Election Precinct
(37.4833°N, 89.2195°W)
Time: 14:57:50
(UTC+00:00)

Cosmos 1244 Rocket - Pass Details

Date: 29 October 2020
Orbit: 954 x 997 km, 82.9° (Epoch: 03 December)

Event Time Altitude Azimuth Distance (km) Brightness Sun altitude
Rises 23:36:05 0° 356° (N) 3,663 7.4 -7.5°
Reaches altitude 10° 23:38:37 10° 359° (N) 2,718 6.7 -8.0°
Maximum altitude 23:44:49 66° 82° (E) 1,058 4.5 -9.2°
Drops below altitude 10° 23:51:02 10° 164° (SSE) 2,731 6.8 -10.4°
Sets 23:53:34 0° 167° (SSE) 3,681 7.5 -10.9°
